Time,TemperatureF,DewpointF,PressureIn,WindDirection,WindDirectionDegrees,WindSpeedMPH,WindSpeedGustMPH,Humidity,HourlyPrecipIn,Conditions,Clouds,dailyrainin,SoftwareType,DateUTC
2013-06-02 00:02:00,52.0,46.0,30.08,North,350,15.0,-999.0,81,-99.99,,,-99.99,,2013-06-02 05:02:00,
2013-06-02 00:12:00,52.0,46.0,30.08,North,350,12.0,16.0,81,-99.99,,,-99.99,,2013-06-02 05:12:00,
2013-06-02 00:22:00,52.0,46.0,30.08,North,350,12.0,16.0,81,-99.99,,,-99.99,,2013-06-02 05:22:00,
2013-06-02 00:32:00,52.0,45.0,30.08,North,350,9.0,-999.0,76,-99.99,,,-99.99,,2013-06-02 05:32:00,
2013-06-02 00:42:00,52.0,45.0,30.08,North,350,9.0,-999.0,76,-99.99,,,-99.99,,2013-06-02 05:42:00,
2013-06-02 00:52:00,52.0,45.0,30.08,North,350,10.0,16.0,76,-99.99,,,-99.99,,2013-06-02 05:52:00,
2013-06-02 01:01:00,52.0,45.0,30.08,North,350,10.0,16.0,76,-99.99,,,-99.99,,2013-06-02 06:01:00,
2013-06-02 01:12:00,52.0,45.0,30.08,North,350,14.0,-999.0,76,-99.99,,,-99.99,,2013-06-02 06:12:00,
2013-06-02 01:21:00,52.0,45.0,30.08,North,350,14.0,-999.0,76,-99.99,,,-99.99,,2013-06-02 06:21:00,
2013-06-02 01:32:00,52.0,45.0,30.08,North,350,14.0,-999.0,76,-99.99,,,-99.99,,2013-06-02 06:32:00,
2013-06-02 01:42:00,52.0,45.0,30.08,North,350,14.0,-999.0,76,-99.99,,,-99.99,,2013-06-02 06:42:00,
2013-06-02 01:52:00,52.0,45.0,30.09,NNW,340,9.0,-999.0,76,-99.99,,,-99.99,,2013-06-02 06:52:00,
2013-06-02 02:01:00,52.0,45.0,30.09,NNW,340,9.0,-999.0,76,-99.99,,,-99.99,,2013-06-02 07:01:00,
2013-06-02 02:11:00,52.0,46.0,30.08,NNW,330,7.0,-999.0,81,-99.99,,,-99.99,,2013-06-02 07:11:00,
2013-06-02 02:21:00,52.0,46.0,30.08,NNW,330,7.0,-999.0,81,-99.99,,,-99.99,,2013-06-02 07:21:00,
2013-06-02 02:32:00,52.0,46.0,30.09,NW,320,8.0,-999.0,81,-99.99,,,-99.99,,2013-06-02 07:32:00,
2013-06-02 02:42:00,52.0,46.0,30.09,NW,320,8.0,-999.0,81,-99.99,,,-99.99,,2013-06-02 07:42:00,
2013-06-02 02:52:00,52.0,46.0,30.10,NW,310,7.0,-999.0,81,-99.99,,,-99.99,,2013-06-02 07:52:00,
2013-06-02 03:01:00,52.0,46.0,30.10,NW,310,7.0,-999.0,81,-99.99,,,-99.99,,2013-06-02 08:01:00,
2013-06-02 03:11:00,52.0,46.0,30.10,NW,320,7.0,-999.0,81,-99.99,,,-99.99,,2013-06-02 08:11:00,
2013-06-02 03:21:00,52.0,46.0,30.10,NW,320,7.0,-999.0,81,-99.99,,,-99.99,,2013-06-02 08:21:00,
2013-06-02 03:31:00,52.0,46.0,30.10,NW,320,7.0,-999.0,81,-99.99,,,-99.99,,2013-06-02 08:31:00,
2013-06-02 03:41:00,52.0,46.0,30.10,NW,320,7.0,-999.0,81,-99.99,,,-99.99,,2013-06-02 08:41:00,
2013-06-02 03:52:00,52.0,46.0,30.10,NW,320,8.0,-999.0,81,-99.99,,,-99.99,,2013-06-02 08:52:00,
2013-06-02 04:01:00,52.0,46.0,30.10,NW,320,8.0,-999.0,81,-99.99,,,-99.99,,2013-06-02 09:01:00,
2013-06-02 04:11:00,52.0,46.0,30.10,NW,320,9.0,-999.0,81,-99.99,,,-99.99,,2013-06-02 09:11:00,
2013-06-02 04:21:00,52.0,46.0,30.10,NW,320,9.0,-999.0,81,-99.99,,,-99.99,,2013-06-02 09:21:00,
2013-06-02 04:33:00,52.0,46.0,30.10,NW,320,9.0,-999.0,81,-99.99,,,-99.99,,2013-06-02 09:33:00,
2013-06-02 04:42:00,52.0,46.0,30.10,NW,320,9.0,-999.0,81,-99.99,,,-99.99,,2013-06-02 09:42:00,
2013-06-02 04:53:00,52.0,45.0,30.11,NW,320,9.0,-999.0,76,-99.99,,,-99.99,,2013-06-02 09:53:00,
2013-06-02 05:02:00,52.0,45.0,30.11,NW,320,9.0,-999.0,76,-99.99,,,-99.99,,2013-06-02 10:02:00,
2013-06-02 05:12:00,52.0,45.0,30.11,NW,310,9.0,-999.0,76,-99.99,,,-99.99,,2013-06-02 10:12:00,
2013-06-02 05:22:00,52.0,45.0,30.11,NW,310,9.0,-999.0,76,-99.99,,,-99.99,,2013-06-02 10:22:00,
2013-06-02 05:32:00,52.0,45.0,30.11,NW,310,10.0,-999.0,76,-99.99,,,-99.99,,2013-06-02 10:32:00,
2013-06-02 05:42:00,52.0,45.0,30.11,NW,310,10.0,-999.0,76,-99.99,,,-99.99,,2013-06-02 10:42:00,
2013-06-02 05:52:00,52.0,45.0,30.11,NW,320,9.0,-999.0,76,-99.99,,,-99.99,,2013-06-02 10:52:00,
2013-06-02 06:02:00,52.0,45.0,30.11,NW,320,9.0,-999.0,76,-99.99,,,-99.99,,2013-06-02 11:02:00,
2013-06-02 06:12:00,52.0,45.0,30.12,NW,320,8.0,-999.0,76,-99.99,,,-99.99,,2013-06-02 11:12:00,
2013-06-02 06:22:00,52.0,45.0,30.12,NW,320,8.0,-999.0,76,-99.99,,,-99.99,,2013-06-02 11:22:00,
2013-06-02 06:32:00,52.0,45.0,30.12,NNW,330,8.0,-999.0,76,-99.99,,,-99.99,,2013-06-02 11:32:00,
2013-06-02 06:42:00,52.0,45.0,30.12,NNW,330,8.0,-999.0,76,-99.99,,,-99.99,,2013-06-02 11:42:00,
2013-06-02 06:52:00,52.0,45.0,30.13,NW,320,8.0,-999.0,76,-99.99,,,-99.99,,2013-06-02 11:52:00,
2013-06-02 07:01:00,52.0,45.0,30.13,NW,320,8.0,-999.0,76,-99.99,,,-99.99,,2013-06-02 12:01:00,
2013-06-02 07:11:00,52.0,46.0,30.13,NNW,330,7.0,-999.0,81,-99.99,,,-99.99,,2013-06-02 12:11:00,
2013-06-02 07:21:00,52.0,46.0,30.13,NNW,330,7.0,-999.0,81,-99.99,,,-99.99,,2013-06-02 12:21:00,
2013-06-02 07:32:00,52.0,45.0,30.14,NNW,340,6.0,-999.0,76,-99.99,,,-99.99,,2013-06-02 12:32:00,
2013-06-02 07:42:00,52.0,45.0,30.14,NNW,340,6.0,-999.0,76,-99.99,,,-99.99,,2013-06-02 12:42:00,
2013-06-02 07:52:00,52.0,45.0,30.13,North,-99,7.0,-999.0,76,-99.99,,,-99.99,,2013-06-02 12:52:00,
2013-06-02 08:01:00,52.0,45.0,30.13,North,-99,7.0,-999.0,76,-99.99,,,-99.99,,2013-06-02 13:01:00,
2013-06-02 08:11:00,52.0,45.0,30.14,North,350,8.0,-999.0,76,-99.99,,,-99.99,,2013-06-02 13:11:00,
2013-06-02 08:21:00,52.0,45.0,30.14,North,350,8.0,-999.0,76,-99.99,,,-99.99,,2013-06-02 13:21:00,
2013-06-02 08:32:00,54.0,45.0,30.14,North,350,9.0,-999.0,71,-99.99,,,-99.99,,2013-06-02 13:32:00,
2013-06-02 08:42:00,54.0,45.0,30.14,North,350,9.0,-999.0,71,-99.99,,,-99.99,,2013-06-02 13:42:00,
2013-06-02 08:52:00,54.0,45.0,30.15,NNE,20,8.0,-999.0,71,-99.99,,,-99.99,,2013-06-02 13:52:00,
2013-06-02 09:02:00,54.0,45.0,30.15,NNE,20,8.0,-999.0,71,-99.99,,,-99.99,,2013-06-02 14:02:00,
2013-06-02 09:11:00,57.0,46.0,30.15,North,350,6.0,-999.0,67,-99.99,,,-99.99,,2013-06-02 14:11:00,
2013-06-02 09:21:00,57.0,46.0,30.15,North,350,6.0,-999.0,67,-99.99,,,-99.99,,2013-06-02 14:21:00,
2013-06-02 09:32:00,57.0,45.0,30.15,North,350,8.0,-999.0,62,-99.99,,,-99.99,,2013-06-02 14:32:00,
2013-06-02 09:42:00,57.0,45.0,30.15,North,350,8.0,-999.0,62,-99.99,,,-99.99,,2013-06-02 14:42:00,
2013-06-02 09:52:00,57.0,45.0,30.15,NNE,20,8.0,-999.0,62,-99.99,,,-99.99,,2013-06-02 14:52:00,
2013-06-02 10:01:00,57.0,45.0,30.15,NNE,20,8.0,-999.0,62,-99.99,,,-99.99,,2013-06-02 15:01:00,
2013-06-02 10:11:00,57.0,45.0,30.15,North,350,8.0,-999.0,62,-99.99,,,-99.99,,2013-06-02 15:11:00,
2013-06-02 10:21:00,57.0,45.0,30.15,North,350,8.0,-999.0,62,-99.99,,,-99.99,,2013-06-02 15:21:00,
2013-06-02 10:32:00,57.0,45.0,30.15,North,350,7.0,-999.0,62,-99.99,,,-99.99,,2013-06-02 15:32:00,
2013-06-02 10:43:00,57.0,45.0,30.15,North,350,7.0,-999.0,62,-99.99,,,-99.99,,2013-06-02 15:43:00,
2013-06-02 10:53:00,57.0,45.0,30.14,North,360,6.0,-999.0,62,-99.99,,,-99.99,,2013-06-02 15:53:00,
2013-06-02 11:03:00,57.0,45.0,30.14,North,360,6.0,-999.0,62,-99.99,,,-99.99,,2013-06-02 16:03:00,
2013-06-02 11:13:00,57.0,45.0,30.15,NNW,330,7.0,-999.0,62,-99.99,,,-99.99,,2013-06-02 16:13:00,
2013-06-02 11:23:00,57.0,45.0,30.15,NNW,330,7.0,-999.0,62,-99.99,,,-99.99,,2013-06-02 16:23:00,
2013-06-02 11:33:00,57.0,45.0,30.15,North,0,0.0,-999.0,62,-99.99,,,-99.99,,2013-06-02 16:33:00,
2013-06-02 11:42:00,57.0,45.0,30.15,North,0,0.0,-999.0,62,-99.99,,,-99.99,,2013-06-02 16:42:00,
2013-06-02 11:52:00,57.0,45.0,30.15,NNE,20,5.0,-999.0,62,-99.99,,,-99.99,,2013-06-02 16:52:00,
2013-06-02 12:02:00,57.0,45.0,30.15,NNE,20,5.0,-999.0,62,-99.99,,,-99.99,,2013-06-02 17:02:00,
2013-06-02 12:12:00,59.0,45.0,30.14,North,350,7.0,-999.0,58,-99.99,,,-99.99,,2013-06-02 17:12:00,
2013-06-02 12:23:00,59.0,45.0,30.14,North,350,7.0,-999.0,58,-99.99,,,-99.99,,2013-06-02 17:23:00,
2013-06-02 12:32:00,59.0,45.0,30.14,West,280,5.0,-999.0,58,-99.99,,,-99.99,,2013-06-02 17:32:00,
2013-06-02 12:42:00,59.0,45.0,30.14,West,280,5.0,-999.0,58,-99.99,,,-99.99,,2013-06-02 17:42:00,
2013-06-02 12:52:00,61.0,45.0,30.14,NNW,330,6.0,-999.0,55,-99.99,,,-99.99,,2013-06-02 17:52:00,
2013-06-02 13:01:00,61.0,45.0,30.14,NNW,330,6.0,-999.0,55,-99.99,,,-99.99,,2013-06-02 18:01:00,
2013-06-02 13:11:00,61.0,43.0,30.14,North,0,0.0,-999.0,51,-99.99,,,-99.99,,2013-06-02 18:11:00,
2013-06-02 13:21:00,61.0,43.0,30.14,North,0,0.0,-999.0,51,-99.99,,,-99.99,,2013-06-02 18:21:00,
2013-06-02 13:32:00,63.0,43.0,30.13,NW,320,9.0,-999.0,48,-99.99,,,-99.99,,2013-06-02 18:32:00,
2013-06-02 13:42:00,63.0,43.0,30.13,NW,320,9.0,-999.0,48,-99.99,,,-99.99,,2013-06-02 18:42:00,
2013-06-02 13:52:00,63.0,46.0,30.12,North,-99,7.0,-999.0,55,-99.99,,,-99.99,,2013-06-02 18:52:00,
2013-06-02 14:01:00,63.0,46.0,30.12,North,-99,7.0,-999.0,55,-99.99,,,-99.99,,2013-06-02 19:01:00,
2013-06-02 14:11:00,63.0,43.0,30.12,WNW,300,5.0,-999.0,48,-99.99,,,-99.99,,2013-06-02 19:11:00,
2013-06-02 14:21:00,63.0,43.0,30.12,WNW,300,5.0,-999.0,48,-99.99,,,-99.99,,2013-06-02 19:21:00,
2013-06-02 14:32:00,63.0,43.0,30.11,NNE,30,6.0,-999.0,48,-99.99,,,-99.99,,2013-06-02 19:32:00,
2013-06-02 14:42:00,63.0,43.0,30.11,NNE,30,6.0,-999.0,48,-99.99,,,-99.99,,2013-06-02 19:42:00,
2013-06-02 14:52:00,64.0,43.0,30.11,NW,320,7.0,-999.0,45,-99.99,,,-99.99,,2013-06-02 19:52:00,
2013-06-02 15:02:00,64.0,43.0,30.11,NW,320,7.0,-999.0,45,-99.99,,,-99.99,,2013-06-02 20:02:00,
2013-06-02 15:11:00,64.0,46.0,30.11,North,0,0.0,-999.0,51,-99.99,,,-99.99,,2013-06-02 20:11:00,
2013-06-02 15:22:00,64.0,46.0,30.11,North,0,0.0,-999.0,51,-99.99,,,-99.99,,2013-06-02 20:22:00,
2013-06-02 15:32:00,64.0,43.0,30.10,North,0,0.0,-999.0,45,-99.99,,,-99.99,,2013-06-02 20:32:00,
2013-06-02 15:42:00,64.0,43.0,30.10,North,0,0.0,-999.0,45,-99.99,,,-99.99,,2013-06-02 20:42:00,
2013-06-02 15:52:00,64.0,41.0,30.09,North,0,0.0,-999.0,42,-99.99,,,-99.99,,2013-06-02 20:52:00,
2013-06-02 16:01:00,64.0,41.0,30.09,North,0,0.0,-999.0,42,-99.99,,,-99.99,,2013-06-02 21:01:00,
2013-06-02 16:11:00,66.0,43.0,30.09,North,0,0.0,-999.0,42,-99.99,,,-99.99,,2013-06-02 21:11:00,
2013-06-02 16:21:00,66.0,43.0,30.09,North,0,0.0,-999.0,42,-99.99,,,-99.99,,2013-06-02 21:21:00,
2013-06-02 16:33:00,66.0,43.0,30.08,North,0,0.0,-999.0,42,-99.99,,,-99.99,,2013-06-02 21:33:00,
2013-06-02 16:42:00,66.0,43.0,30.08,North,0,0.0,-999.0,42,-99.99,,,-99.99,,2013-06-02 21:42:00,
2013-06-02 16:53:00,66.0,43.0,30.07,SW,220,6.0,-999.0,42,-99.99,,,-99.99,,2013-06-02 21:53:00,
2013-06-02 17:03:00,66.0,43.0,30.07,SW,220,6.0,-999.0,42,-99.99,,,-99.99,,2013-06-02 22:03:00,
2013-06-02 17:12:00,66.0,41.0,30.07,North,0,0.0,-999.0,39,-99.99,,,-99.99,,2013-06-02 22:12:00,
2013-06-02 17:23:00,66.0,41.0,30.07,North,0,0.0,-999.0,39,-99.99,,,-99.99,,2013-06-02 22:23:00,
2013-06-02 17:33:00,66.0,39.0,30.07,North,0,0.0,-999.0,37,-99.99,,,-99.99,,2013-06-02 22:33:00,
2013-06-02 17:42:00,66.0,39.0,30.07,North,0,0.0,-999.0,37,-99.99,,,-99.99,,2013-06-02 22:42:00,
2013-06-02 17:52:00,66.0,39.0,30.06,WNW,300,6.0,-999.0,37,-99.99,,,-99.99,,2013-06-02 22:52:00,
2013-06-02 18:02:00,66.0,39.0,30.06,WNW,300,6.0,-999.0,37,-99.99,,,-99.99,,2013-06-02 23:02:00,
2013-06-02 18:12:00,68.0,39.0,30.05,WNW,290,5.0,-999.0,34,-99.99,,,-99.99,,2013-06-02 23:12:00,
2013-06-02 18:22:00,68.0,39.0,30.05,WNW,290,5.0,-999.0,34,-99.99,,,-99.99,,2013-06-02 23:22:00,
2013-06-02 18:32:00,68.0,39.0,30.05,North,0,0.0,-999.0,34,-99.99,,,-99.99,,2013-06-02 23:32:00,
2013-06-02 18:42:00,68.0,39.0,30.05,North,0,0.0,-999.0,34,-99.99,,,-99.99,,2013-06-02 23:42:00,
2013-06-02 18:52:00,66.0,39.0,30.05,North,0,0.0,-999.0,37,-99.99,,,-99.99,,2013-06-02 23:52:00,
2013-06-02 19:01:00,66.0,39.0,30.05,North,0,0.0,-999.0,37,-99.99,,,-99.99,,2013-06-03 00:01:00,
2013-06-02 19:11:00,66.0,37.0,30.04,North,0,0.0,-999.0,34,-99.99,,,-99.99,,2013-06-03 00:11:00,
2013-06-02 19:21:00,66.0,37.0,30.04,North,0,0.0,-999.0,34,-99.99,,,-99.99,,2013-06-03 00:21:00,
2013-06-02 19:32:00,68.0,37.0,30.04,North,0,0.0,-999.0,32,-99.99,,,-99.99,,2013-06-03 00:32:00,
2013-06-02 19:42:00,68.0,37.0,30.04,North,0,0.0,-999.0,32,-99.99,,,-99.99,,2013-06-03 00:42:00,
2013-06-02 19:51:00,66.0,39.0,30.04,North,0,0.0,-999.0,37,-99.99,,,-99.99,,2013-06-03 00:51:00,
2013-06-02 20:01:00,66.0,39.0,30.04,North,0,0.0,-999.0,37,-99.99,,,-99.99,,2013-06-03 01:01:00,
2013-06-02 20:11:00,66.0,43.0,30.04,North,0,0.0,-999.0,42,-99.99,,,-99.99,,2013-06-03 01:11:00,
2013-06-02 20:21:00,66.0,43.0,30.04,North,0,0.0,-999.0,42,-99.99,,,-99.99,,2013-06-03 01:21:00,
2013-06-02 20:32:00,66.0,43.0,30.04,North,0,0.0,-999.0,42,-99.99,,,-99.99,,2013-06-03 01:32:00,
2013-06-02 20:42:00,66.0,43.0,30.04,North,0,0.0,-999.0,42,-99.99,,,-99.99,,2013-06-03 01:42:00,
2013-06-02 20:52:00,64.0,43.0,30.04,North,0,0.0,-999.0,45,-99.99,,,-99.99,,2013-06-03 01:52:00,
2013-06-02 21:02:00,64.0,43.0,30.04,North,0,0.0,-999.0,45,-99.99,,,-99.99,,2013-06-03 02:02:00,
2013-06-02 21:12:00,64.0,43.0,30.04,North,0,0.0,-999.0,45,-99.99,,,-99.99,,2013-06-03 02:12:00,
2013-06-02 21:22:00,64.0,43.0,30.04,North,0,0.0,-999.0,45,-99.99,,,-99.99,,2013-06-03 02:22:00,
2013-06-02 21:32:00,63.0,43.0,30.04,North,0,0.0,-999.0,48,-99.99,,,-99.99,,2013-06-03 02:32:00,
2013-06-02 21:42:00,63.0,43.0,30.04,North,0,0.0,-999.0,48,-99.99,,,-99.99,,2013-06-03 02:42:00,
2013-06-02 21:52:00,63.0,45.0,30.04,North,0,0.0,-999.0,51,-99.99,,,-99.99,,2013-06-03 02:52:00,
2013-06-02 22:02:00,63.0,45.0,30.04,North,0,0.0,-999.0,51,-99.99,,,-99.99,,2013-06-03 03:02:00,
2013-06-02 22:12:00,61.0,46.0,30.05,North,0,0.0,-999.0,59,-99.99,,,-99.99,,2013-06-03 03:12:00,
2013-06-02 22:22:00,61.0,46.0,30.05,North,0,0.0,-999.0,59,-99.99,,,-99.99,,2013-06-03 03:22:00,
2013-06-02 22:33:00,57.0,45.0,30.06,North,0,0.0,-999.0,62,-99.99,,,-99.99,,2013-06-03 03:33:00,
2013-06-02 22:43:00,57.0,45.0,30.06,North,0,0.0,-999.0,62,-99.99,,,-99.99,,2013-06-03 03:43:00,
2013-06-02 22:53:00,57.0,45.0,30.06,North,0,0.0,-999.0,62,-99.99,,,-99.99,,2013-06-03 03:53:00,
2013-06-02 23:03:00,57.0,45.0,30.06,North,0,0.0,-999.0,62,-99.99,,,-99.99,,2013-06-03 04:03:00,
2013-06-02 23:13:00,57.0,45.0,30.06,North,0,0.0,-999.0,62,-99.99,,,-99.99,,2013-06-03 04:13:00,
2013-06-02 23:23:00,57.0,45.0,30.06,North,0,0.0,-999.0,62,-99.99,,,-99.99,,2013-06-03 04:23:00,
2013-06-02 23:33:00,57.0,45.0,30.06,North,0,0.0,-999.0,62,-99.99,,,-99.99,,2013-06-03 04:33:00,
2013-06-02 23:42:00,57.0,45.0,30.06,North,0,0.0,-999.0,62,-99.99,,,-99.99,,2013-06-03 04:42:00,
2013-06-02 23:52:00,55.0,46.0,30.06,North,0,0.0,-999.0,71,-99.99,,,-99.99,,2013-06-03 04:52:00,